Weather Roundup
Issued by NWS Chicago, IL

Home | Current Version | Previous Version | Graphics & Text | Print | Product List | Glossary On
Versions: 1 2 3 4 5 6 7 8 9 10 11 12 13 14 15 16 17 18 19 20 21 22 23 24 25 26 27 28 29 30 31 32 33 34 35 36 37 38 39 40 41 42 43 44 45 46 47 48 49 50
000
NZUS59 KLOT 260003
HRRLOT

CHICAGO AREA WEATHER ROUNDUP
NATIONAL WEATHER SERVICE CHICAGO/ROMEOVILLE IL
700 PM CDT TUE APR 25 2017

NOTE: "FAIR" INDICATES FEW OR NO CLOUDS BELOW 12,000 FEET WITH NO
SIGNIFICANT WEATHER AND/OR OBSTRUCTIONS TO VISIBILITY.

* THESE STATIONS ARE NOT UNDER NWS QUALITY CONTROL. THEY ALSO MAY NOT
  REPORT WEATHER SUCH AS PRECIPITATION OR FOG.

ILZ005-006-012>014-019>023-260100-
NORTHEAST ILLINOIS

CITY           SKY/WX    TMP DP  RH WIND       PRES   REMARKS
OHARE          CLOUDY    76  47  35 SE18G26   29.53R
6HR MIN TEMP:  74; 6HR MAX TEMP:  79;

MIDWAY         MOCLDY    78  50  37 SE15G23   29.54R
6HR MIN TEMP:  76; 6HR MAX TEMP:  80;

AURORA         CLEAR     76  50  40 SE17      29.52R
6HR MIN TEMP:  74; 6HR MAX TEMP:  80;

LANSING*       CLOUDY    75  55  49 S13G18    29.55S
JOLIET*        CLEAR     77  51  39 S9G18     29.53R
WAUKEGAN       PTCLDY    60  49  66 SE10      29.55F
6HR MIN TEMP:  60; 6HR MAX TEMP:  68;

DUPAGE AIRPORT CLEAR     76  50  40 SE10      29.52S
6HR MIN TEMP:  72; 6HR MAX TEMP:  78; 6HR PCP: TRACE;

WHEELING       PTCLDY    73  50  44 SE8       29.55S
6HR MIN TEMP:  72; 6HR MAX TEMP:  76;

KANKAKEE*      PTCLDY    76  50  40 S17G24    29.54S
MORRIS*        CLEAR     76  49  38 SE15G21   29.51R
LEWIS AIRPORT* CLEAR     74  55  50 S14       29.54R
NORTHERLY ISL    N/A     63  52  67 SE2         N/A
$$

WIZ051-052-058>065-066-070>072-260100-
SOUTHEAST WISCONSIN

CITY           SKY/WX    TMP DP  RH WIND       PRES   REMARKS
MILWAUKEE      CLOUDY    62  51  67 SE13      29.58S
6HR MIN TEMP:  62; 6HR MAX TEMP:  70;

KENOSHA*       MOCLDY    64  50  60 E13       29.56S
RACINE*        PTCLDY    60  49  66 SE12      29.59R
WAUKESHA       CLEAR     66  48  52 SE14      29.57F
WEST BEND      CLOUDY    63  50  63 SE8       29.59S
$$

INZ001>003-010>013-019-020-260100-
NORTHWEST INDIANA

CITY           SKY/WX    TMP DP  RH WIND       PRES   REMARKS
GARY*          MOCLDY    77  46  33 SE16G30   29.55F
MICHIGAN CITY* NOT AVBL
RENSSELAER*    NOT AVBL
VALPARAISO     CLOUDY    75  54  47 SE13G21   29.58F
$$

LMZ740>746-260100-
SOUTHERN LAKE MICHIGAN

STATION/POSITION TIME  SKY/WX   TEMP WIND        PRES    VSBY
                                AIR  DIR/SP/G
                 (UTC)          (F)  (DEG/KT/KT) (MB)    (MI)
HARRISON CRIB    2330            64  130/ 19/ 21   N/A
BURNHAM HARBOR   0000            62  120/  5/  7   N/A
CALUMET HARBOR   2330            76  140/ 11/ 15 1000.1R
BURNS HARBOR     2340            76  140/ 13/ 19 1001.4F
MICHIGAN CITY    2340            74  120/ 15/ 20   N/A
$$

ABBREVIATIONS USED IN REMARKS
   TC - TEMPERATURE IN CELSIUS
  WCI - WIND CHILL INDEX
   HX - HEAT INDEX
  VSB - VISIBILITY
$$



USA.gov is the U.S. government's official web portal to all federal, state and local government web resources and services.